Find Nadezhda

NORAD ID: 26384 Int'l Des: 2000-033 Owner: VMFR/VKSR Country: RU operational
LEOCIRCULARRETROGRADESSO

实时位置

正在加载3D地球...

关于 Nadezhda

正在加载描述...

即将过境

Passes for default location (London). Set your location on the main map for personalized predictions.

高度历史

Loading altitude history...

两行轨道根数

1 26384U 00033A 26105.93044629 .00000391 00000-0 70958-4 0 9996
2 26384 97.8378 83.4754 0012815 186.3371 173.7676 14.71264030379031
Epoch: Apr 15, 2026 • Age: 6 hours

当前状态

高度 676.5 km
速度 7.52 km/s
星下点 -63.13°S, 21.29°W
发射日期 Jun 28, 2000
运行时间 25.7 years
类型 other

技术详情

分类 Payload
质量 870.00 kg
干质量 870.00 kg
总质量 870.00 kg
长度 5.00 m
直径 2.10 m
跨度 17.00 m
形状 Cyl + Ant
制造商 POL
平台类型 KAUR-1 17F118
阶段状态 In Orbit
所有者/国家 VMFR/VKSR/RU

Most Searched